Regional Weather Roundup
Issued by NWS

Home | Current Version | Previous Version | Text Only | Print | Product List | Glossary On
Versions: 1 2 3 4 5 6 7 8 9 10 11 12 13 14 15 16 17 18 19 20 21 22 23 24 25 26 27 28 29 30 31 32 33 34 35 36 37 38 39 40 41 42 43 44 45 46 47 48 49 50
000
ASUS44 KLUB 201201
RWRTX
WEST TEXAS WEATHER ROUNDUP
NATIONAL WEATHER SERVICE LUBBOCK TX
700 AM CDT MON OCT 20 2014

NOTE: "FAIR" INDICATES FEW OR NO CLOUDS BELOW 12,000 FEET WITH NO
SIGNIFICANT WEATHER AND/OR OBSTRUCTIONS TO VISIBILITY.

TXZ004-006>008-010-012-014-016-OKZ002-201300-
TEXAS PANHANDLE/OKLAHOMA PANHANDLE

CITY           SKY/WX    TMP DP  RH WIND       PRES   REMARKS
AMARILLO       CLEAR     55  54  96 W6        30.11R
BORGER         CLEAR     56  54  93 CALM      30.08R FOG
CANADIAN       CLEAR     54  53  98 CALM      30.05S FOG
DALHART        CLEAR     48  44  86 NW6       30.11S
DUMAS          CLEAR     50  49  95 NW6       30.10R FOG
GUYMON         CLEAR     48  45  89 W6        30.09R
HEREFORD       CLEAR     53  53 100 MISG      30.12R FOG
PAMPA          CLEAR     55  53  95 W8        30.09R
$$

TXZ026-029-035-045-048-201300-
SOUTHERN PANHANDLE/SOUTH PLAINS/ROLLING PLAINS

CITY           SKY/WX    TMP DP  RH WIND       PRES   REMARKS
CHILDRESS      CLEAR     57  55  93 S7        30.06R
LUBBOCK        PTCLDY    51  50  96 W5        30.10S
SNYDER         CLEAR     56  55  95 S3        30.09R
$$

TXZ052-054-060>062-072-078-127-140-154-169-201300-
PERMIAN BASIN/CONCHO VALLEY/BIG COUNTRY/EDWARDS PLATEAU

CITY           SKY/WX    TMP DP  RH WIND       PRES   REMARKS
ABILENE        PTCLDY    61  58  90 SE6       30.07R
BIG SPRING     PTCLDY    59  55  88 CALM      30.11R
JUNCTION       MOCLDY    56  54  93 NE3       30.07R FOG
MIDLAND        MOCLDY    58  55  90 E5        30.09R
ODESSA         CLOUDY    58  55  90 E5        30.09R
SAN ANGELO     MOCLDY    57  54  89 CALM      30.07R
SONORA         MOCLDY    59  54  82 CALM      30.11R
WINK           CLOUDY    63  59  87 E7        30.05R
$$

TXZ055-058-074-075-080-082-201300-
FAR WEST/SOUTHWEST MOUNTAINS/TRANS PECOS

CITY           SKY/WX    TMP DP  RH WIND       PRES   REMARKS
ALPINE         MOCLDY    56  53  89 CALM      30.16S
DRYDEN           N/A     66  63  90 NE6       30.02R
EL PASO        MOCLDY    58  54  86 N8        30.07S
FORT STOCKTON  CLOUDY    64  59  83 SE7       30.07R
MARFA          CLOUDY    55  54  94 N7        30.13S
PRESIDIO       PTSUNNY   63  60  91 NW5       30.02F
$$

TXZ014-016-019-021>030-083-201300
TEXAS TECH WEST TEXAS MESONET/TEXAS PANHANDLE/NORTHERN SOUTH PLAINS

CITY           SKY/WX    TMP DP  RH WIND       PRES   REMARKS
ABERNATHY 5ENE   N/A     48  47  97 W2        30.12R
AMARILLO 9NNE    N/A     52  51  99 S1        30.10R
AMARILLO 7SSE    N/A     51  51  99 SW6       30.11S
AMHERST 1NE      N/A     47  47  99 NW3       30.12S
BOOTLEG 11WNW    N/A     52  51  95 SW9       30.14S
CANADIAN 6E      N/A     55  55  99 CALM      30.04S
CAPROCK CYN SP   N/A     62  56  82 W9        30.07R
CHILDRESS 2NNE   N/A     56  55  95 S7        30.05R
CLARENDON 2WSW   N/A     57  54  89 SW7       30.07S
CLAUDE 12SW      N/A     58  56  92 SW5       30.10S
DIMMITT 2NE      N/A     52  51  97 SW6       30.12R
FLOYDADA 2NNE    N/A     52  51  99 SW6       30.10S
FRIONA 2NE       N/A     49  48  97 W5        30.13S
GOODLETT 3W      N/A     57  55  92 S6        30.04R
HART 3N          N/A     47  47  98 W3        30.12R
HEREFORD 2NW     N/A     50  49  95 SW8       30.11S
MCLEAN 1E        N/A     59  57  92 SW8       30.06R
MEMPHIS 1NE      N/A     51  50  95 NW2       30.06R
MULESHOE 2SSW    N/A     45  45  98 SW2       30.13R
OLTON 6S         N/A     47  46  95 W5        30.12R
PALO DURO SP     N/A     54  53  95 NW2       30.11S
PAMPA 2E         N/A     57  55  91 W6        30.08R
PLAINVIEW 1S     N/A     48  48  99 W1        30.11R
SILVERTON 7ESE   N/A     51  51  97 W7        30.09S
TULIA 2ENE       N/A     52  51  98 W7        30.10S
TURKEY 2WSW      N/A     56  55  94 SW8       30.06R
UMBARGER 3NNE    N/A     51  50  99 SW7       30.11S
$$

TXZ033>036-039>041-045>048-201300
TEXAS TECH WEST TEXAS MESONET/SOUTH PLAINS

CITY           SKY/WX    TMP DP  RH WIND       PRES   REMARKS
AIKEN 3WSW       N/A     47  47 100 W5        30.12R
ANDREWS 2NE      N/A     54  51  92 N3        30.10R
ANTON 6SSW       N/A     49  48  97 NW3       30.11S
BROWNFIELD 2S    N/A     51  50  96 W1        30.10S
DENVR CTY 7WNW   N/A     51  49  95 NW3       30.11R
GAIL 2ESE        N/A     54  52  95 NW3       30.08R
LAMESA 2SE       N/A     52  51  97 N1        30.10S
LEVELLAND 4S     N/A     48  46  94 CALM      30.12R
LUBBOCK 3WNW     N/A     52  50  95 NW1       30.11S
MORTON 1ENE      N/A     48  48  99 SW2       30.12R
ODONNELL 1N      N/A     51  49  92 CALM      30.10S
PLAINS 3N        N/A     48  47  97 NW3       30.12R
RALLS 1SE        N/A     54  53  95 W2        30.11S
REESE CENTER     N/A     49  49  97 W1        30.11S
SEMINOLE 2NNE    N/A     52  51  94 N5        30.11R
SLATON 2NE       N/A     54  53  94 NW1       30.10S
SNYDER 3E        N/A     56  55  94 S5        30.08R
SUNDOWN 8SW      N/A     48  47  97 NW5       30.12R
TAHOKA 3NNE      N/A     55  54  95 CALM      30.10R
WOLFFORTH 6SSW   N/A     52  51  99 NW3       30.11S
$$

TXZ031-032-036>038-042>044-201300-
TEXAS TECH WEST TEXAS MESONET/ROLLING PLAINS

CITY           SKY/WX    TMP DP  RH WIND       PRES   REMARKS
ASPERMONT 3NE    N/A     55  54  95 S1        30.07R
FLUVANNA 3WNW    N/A     55  53  90 S1        30.08S
GRAHAM 5SSW      N/A     58  54  88 W7        30.09S
GUTHRIE 10WSW    N/A     56  54  93 S2        30.07R
HASKELL 1NW      N/A     61  58  90 S3        30.06R
JAYTON 1SSE      N/A     57  56  94 W2        30.07S
KNOX CITY 3NW    N/A     59  55  87 S5        30.07R
LK A HENRY 1NW   N/A     57  54  92 W3        30.08R
NORTHFIELD 1S    N/A     55  54  98 SW6       30.06R
ODELL 4ENE       N/A     62  60  94 S7        30.05S
PADUCAH 10SW     N/A     56  55  94 S7        30.06S
POST 1NE         N/A     57  54  89 W3        30.08S
RRING SPRGS 3N   N/A     56  54  95 SW7       30.08R
SEYMOUR 3NW      N/A     60  57  91 S5        30.06R
SPUR 1W          N/A     54  51  92 NW2       30.07S
WEINERT 2NNE     N/A     59  58  96 S5        30.06S
WHITE RVR 6NE    N/A     57  54  89 W3        30.08F
$$

TXZ052-054-060>062-072-078-127-140-154-169-201300-
TEXAS TECH WEST TEXAS MESONET/PERMIAN BASIN/
CONCHO VALLEY/BIG COUNTRY/EDWARDS PLATEAU

CITY           SKY/WX    TMP DP  RH WIND       PRES   REMARKS
COYANOSA 2N      N/A     62  58  90 E5        30.04S
JUNCTION 1SSW    N/A     54  53  97 N1        30.07S
MERTZON 3NNE     N/A     53  52  95 CALM      30.09R
SAN ANGELO 7NW   N/A     58  55  88 E1        30.07R
STRLNG CT 4WSW   N/A     51  48  91 NE1       30.09R
ST LAWRNCE 5SW   N/A     55  54  96 SE3       30.09R
SWEETWATR 11SW   N/A     58  56  93 SE6       30.09R
WALL 1E          N/A     53  51  90 N3        30.06S
$$

TXZ055-058-074-075-080-082-201300-
TEXAS TECH WEST TEXAS MESONET/FAR WEST/SOUTHWEST MOUNTAINS/TRANS PECOS

CITY           SKY/WX    TMP DP  RH WIND       PRES   REMARKS
PRSMN GAP BBNP   N/A     64  58  80 N9        30.04R
GUADLPE MTN NP   N/A     55  54  96 NW2       30.18R
$$



USA.gov is the U.S. government's official web portal to all federal, state and local government web resources and services.